When you browse on this site, cookies collect data to enhance your experience and personalize the content and advertising you see.
Visit our Privacy Policy to learn more. By continuing to use the site, you agree to this use of cookies and data.
  • In Denmark
  • List of Countries
  • For 7 days
  • Water Temperature
  • Weather Map
  • Weather Widgets
  • user-avatar
    Login

    Hourly Weather Konstantyna

    Today, 10 April, Friday

    Time Temperature Precipitation Wind Pressure Humidity
    00:00 +9°C° 0 mm 0 mps 711 mmHg 90%
    01:00 +9°C° 0 mm 0 mps 711 mmHg 90%
    02:00 +9°C° 0 mm 0 mps 710 mmHg 90%
    03:00 +9°C° 0 mm 0 mps 710 mmHg 90%
    04:00 +9°C° 0 mm 0 mps 710 mmHg 89%
    05:00 +10°C° 0 mm 0 mps 711 mmHg 89%
    06:00 +12°C° 0 mm 0 mps 711 mmHg 89%
    07:00 +13°C° 0 mm 0 mps 712 mmHg 82%
    08:00 +16°C° 0 mm 1 mps 712 mmHg 75%
    09:00 +18°C° 0 mm 1 mps 712 mmHg 68%
    10:00 +19°C° 0.5 mm 1 mps 712 mmHg 67%
    11:00 +18°C° 0.5 mm 2 mps 712 mmHg 67%
    12:00 +19°C° 0.5 mm 3 mps 712 mmHg 66%
    13:00 +18°C° 1 mm 3 mps 712 mmHg 70%
    14:00 +18°C° 1 mm 3 mps 711 mmHg 73%
    15:00 +17°C° 1 mm 3 mps 710 mmHg 77%
    16:00 +16°C° 1.4 mm 2 mps 710 mmHg 82%
    17:00 +15°C° 1.4 mm 1 mps 711 mmHg 87%
    18:00 +14°C° 1.4 mm 1 mps 711 mmHg 93%
    19:00 +13°C° 0.8 mm 1 mps 711 mmHg 93%
    20:00 +13°C° 0.8 mm 1 mps 711 mmHg 93%
    21:00 +12°C° 0.8 mm 0 mps 712 mmHg 93%
    22:00 +11°C° 0 mm 0 mps 711 mmHg 93%
    23:00 +11°C° 0 mm 0 mps 711 mmHg 93%

    Tomorrow, 11 April, Saturday

    Time Temperature Precipitation Wind Pressure Humidity
    00:00 +11°C° 0 mm 0 mps 711 mmHg 93%
    01:00 +10°C° 0 mm 0 mps 711 mmHg 93%
    02:00 +10°C° 0 mm 0 mps 711 mmHg 94%
    03:00 +10°C° 0 mm 1 mps 711 mmHg 94%
    04:00 +11°C° 0 mm 1 mps 711 mmHg 94%
    05:00 +11°C° 0 mm 1 mps 711 mmHg 94%
    06:00 +11°C° 0 mm 1 mps 712 mmHg 93%
    07:00 +13°C° 0 mm 1 mps 712 mmHg 89%
    08:00 +14°C° 0 mm 1 mps 712 mmHg 85%
    09:00 +15°C° 0 mm 1 mps 713 mmHg 80%
    10:00 +16°C° 0.1 mm 2 mps 713 mmHg 75%
    11:00 +17°C° 0.1 mm 2 mps 713 mmHg 71%
    12:00 +18°C° 0.1 mm 3 mps 713 mmHg 66%
    13:00 +18°C° 0.1 mm 3 mps 712 mmHg 67%
    14:00 +18°C° 0.1 mm 3 mps 712 mmHg 69%
    15:00 +18°C° 0.1 mm 4 mps 712 mmHg 70%
    16:00 +16°C° 0 mm 3 mps 711 mmHg 77%
    17:00 +14°C° 0 mm 3 mps 711 mmHg 83%
    18:00 +13°C° 0 mm 2 mps 711 mmHg 90%
    19:00 +12°C° 0 mm 2 mps 711 mmHg 92%
    20:00 +12°C° 0 mm 1 mps 712 mmHg 94%
    21:00 +11°C° 0 mm 1 mps 712 mmHg 96%
    22:00 +11°C° 0 mm 1 mps 712 mmHg 96%
    23:00 +11°C° 0 mm 1 mps 711 mmHg 95%

    Day after tomorrow, 12 April, Sunday

    Time Temperature Precipitation Wind Pressure Humidity
    00:00 +9°C° 0 mm 0 mps 711 mmHg 95%
    01:00 +11°C° 0 mm 1 mps 711 mmHg 94%
    02:00 +11°C° 0 mm 1 mps 711 mmHg 93%
    03:00 +11°C° 0 mm 1 mps 711 mmHg 93%
    04:00 +11°C° 0 mm 1 mps 711 mmHg 91%
    05:00 +12°C° 0 mm 1 mps 711 mmHg 90%
    06:00 +13°C° 0 mm 1 mps 711 mmHg 89%
    07:00 +15°C° 0 mm 1 mps 712 mmHg 82%
    08:00 +17°C° 0 mm 2 mps 712 mmHg 76%
    09:00 +18°C° 0 mm 2 mps 712 mmHg 69%
    10:00 +19°C° 0.1 mm 2 mps 712 mmHg 64%
    11:00 +21°C° 0.1 mm 2 mps 712 mmHg 59%
    12:00 +22°C° 0.1 mm 3 mps 712 mmHg 53%
    13:00 +22°C° 0 mm 3 mps 711 mmHg 53%
    14:00 +22°C° 0 mm 3 mps 711 mmHg 54%
    15:00 +22°C° 0 mm 3 mps 710 mmHg 54%
    16:00 +20°C° 0.1 mm 2 mps 710 mmHg 60%
    17:00 +18°C° 0.1 mm 2 mps 709 mmHg 66%
    18:00 +18°C° 0.1 mm 1 mps 709 mmHg 73%
    19:00 +16°C° 0 mm 1 mps 709 mmHg 74%
    20:00 +15°C° 0 mm 1 mps 709 mmHg 75%
    21:00 +15°C° 0 mm 1 mps 709 mmHg 77%
    22:00 +14°C° 0 mm 2 mps 708 mmHg 77%
    23:00 +14°C° 0 mm 2 mps 708 mmHg 78%

    13 April, Monday

    Time Temperature Precipitation Wind Pressure Humidity
    00:00 +14°C° 0 mm 2 mps 708 mmHg 78%
    01:00 +14°C° 0 mm 2 mps 707 mmHg 78%
    02:00 +14°C° 0 mm 2 mps 707 mmHg 78%
    03:00 +13°C° 0 mm 2 mps 707 mmHg 77%
    04:00 +14°C° 0 mm 2 mps 707 mmHg 77%
    05:00 +14°C° 0 mm 2 mps 707 mmHg 77%
    06:00 +14°C° 0 mm 2 mps 707 mmHg 77%
    07:00 +16°C° 0 mm 2 mps 707 mmHg 70%
    08:00 +18°C° 0 mm 2 mps 707 mmHg 63%
    09:00 +20°C° 0 mm 2 mps 708 mmHg 56%
    10:00 +22°C° 0 mm 3 mps 707 mmHg 52%
    11:00 +23°C° 0 mm 4 mps 707 mmHg 49%
    12:00 +26°C° 0 mm 4 mps 706 mmHg 45%
    13:00 +27°C° 0 mm 5 mps 706 mmHg 44%
    14:00 +28°C° 0 mm 5 mps 705 mmHg 42%
    15:00 +28°C° 0 mm 6 mps 705 mmHg 41%
    16:00 +26°C° 0 mm 5 mps 704 mmHg 45%
    17:00 +22°C° 0 mm 4 mps 704 mmHg 48%
    18:00 +20°C° 0 mm 4 mps 703 mmHg 52%
    19:00 +19°C° 0 mm 3 mps 703 mmHg 53%
    20:00 +18°C° 0 mm 2 mps 703 mmHg 53%
    21:00 +18°C° 0 mm 1 mps 703 mmHg 53%
    22:00 +16°C° 0 mm 1 mps 703 mmHg 53%
    23:00 +16°C° 0 mm 1 mps 703 mmHg 54%

    14 April, Tuesday

    Time Temperature Precipitation Wind Pressure Humidity
    00:00 +16°C° 0 mm 1 mps 702 mmHg 54%
    01:00 +16°C° 0 mm 1 mps 702 mmHg 54%
    02:00 +16°C° 0 mm 1 mps 702 mmHg 55%
    03:00 +15°C° 0 mm 1 mps 702 mmHg 55%
    04:00 +16°C° 0 mm 1 mps 702 mmHg 59%
    05:00 +16°C° 0 mm 1 mps 702 mmHg 63%
    06:00 +16°C° 0 mm 1 mps 703 mmHg 66%
    07:00 +19°C° 0 mm 1 mps 703 mmHg 64%
    08:00 +19°C° 0 mm 2 mps 704 mmHg 62%
    09:00 +21°C° 0 mm 2 mps 704 mmHg 59%
    10:00 +21°C° 0 mm 2 mps 704 mmHg 60%
    11:00 +22°C° 0 mm 3 mps 704 mmHg 61%
    12:00 +22°C° 0 mm 3 mps 705 mmHg 62%
    13:00 +22°C° 0 mm 3 mps 704 mmHg 64%
    14:00 +22°C° 0 mm 3 mps 704 mmHg 66%
    15:00 +22°C° 0 mm 3 mps 704 mmHg 68%
    16:00 +20°C° 0 mm 3 mps 704 mmHg 74%
    17:00 +18°C° 0 mm 3 mps 704 mmHg 80%
    18:00 +16°C° 0 mm 2 mps 704 mmHg 86%
    19:00 +16°C° 0 mm 2 mps 705 mmHg 88%
    20:00 +15°C° 0 mm 2 mps 705 mmHg 91%
    21:00 +14°C° 0 mm 1 mps 705 mmHg 93%
    22:00 +13°C° 0 mm 1 mps 705 mmHg 93%
    23:00 +13°C° 0 mm 1 mps 705 mmHg 94%

    15 April, Wednesday

    Time Temperature Precipitation Wind Pressure Humidity
    00:00 +12°C° 0 mm 1 mps 705 mmHg 94%
    01:00 +12°C° 0 mm 1 mps 704 mmHg 94%
    02:00 +12°C° 0 mm 1 mps 704 mmHg 93%
    03:00 +12°C° 0 mm 1 mps 704 mmHg 93%
    04:00 +13°C° 0 mm 1 mps 704 mmHg 90%
    05:00 +14°C° 0 mm 1 mps 704 mmHg 87%
    06:00 +15°C° 0 mm 1 mps 704 mmHg 84%
    07:00 +18°C° 0 mm 2 mps 705 mmHg 69%
    08:00 +22°C° 0 mm 3 mps 706 mmHg 54%
    09:00 +26°C° 0 mm 3 mps 706 mmHg 40%
    10:00 +27°C° 0 mm 4 mps 706 mmHg 36%
    11:00 +28°C° 0 mm 6 mps 707 mmHg 33%
    12:00 +30°C° 0 mm 7 mps 707 mmHg 29%
    13:00 +28°C° 0 mm 7 mps 707 mmHg 35%
    14:00 +27°C° 0 mm 6 mps 707 mmHg 41%
    15:00 +26°C° 0 mm 6 mps 707 mmHg 47%
    16:00 +22°C° 0 mm 5 mps 707 mmHg 59%
    17:00 +19°C° 0 mm 4 mps 708 mmHg 71%
    18:00 +16°C° 0 mm 3 mps 708 mmHg 84%
    19:00 +15°C° 0 mm 2 mps 708 mmHg 86%
    20:00 +13°C° 0 mm 1 mps 709 mmHg 89%
    21:00 +12°C° 0 mm 1 mps 709 mmHg 92%
    22:00 +12°C° 0 mm 1 mps 709 mmHg 91%
    23:00 +12°C° 0 mm 1 mps 710 mmHg 91%
    Show more